Location: Kuffner-Sternwarte
(48.2130°N, 16.2960°E)
Time: 21:35:39
(UTC+01:00)

ISS - Visible Passes

Search period start: 09 December 2018 00:00
Search period end: 19 December 2018 00:00
Orbit: 401 x 408 km, 51.6° (Epoch: 10 December)

Date Brightness Start Highest point End Pass type
(mag) Time Alt. Az. Time Alt. Az. Time Alt. Az.
09 Dec -3.7 16:46:25 10° WNW 16:49:39 58° NNE 16:52:52 10° E visible
09 Dec -2.5 18:23:00 10° WNW 18:25:52 37° SW 18:25:52 37° SW visible
10 Dec -3.4 17:30:42 10° WNW 17:33:56 62° SSW 17:36:18 17° SE visible
10 Dec -0.4 19:08:37 10° WSW 19:09:00 11° WSW 19:09:00 11° WSW visible
11 Dec -3.8 16:38:27 10° WNW 16:41:44 88° NNE 16:45:00 10° ESE visible
11 Dec -1.3 18:15:27 10° W 18:17:54 20° SW 18:19:41 13° S visible
12 Dec -2.0 17:22:52 10° W 17:25:50 32° SW 17:28:46 10° SSE visible
14 Dec -0.7 17:15:23 10° W 17:17:32 16° SW 17:19:42 10° S visible
